Temperature
17 17 17 17 16 16 16 16 16 16 16 16 16 16 16 16 16 16 16 15 15 15 15 15 16 16 15 15 15 15 15 15 15 15 15 15 15 15 15 15 15 15 15
17 17 17 17 16 16 16 16 16 16 16 15 15 15 15 15 15 15 15 15 15 15 15 15 15 15 15 15 15 15 15 15 15 15 15 15 14 14 14 14 14 15 15
17 17 16 16 16 16 16 16 16 16 16 15 15 15 15 15 15 15 15 15 15 15 15 15 15 15 15 15 15 15 15 15 14 15 14 14 14 14 14 14 14 14 14
16 16 16 16 16 16 16 15 15 15 15 15 15 15 15 15 15 15 15 15 15 15 14 14 14 14 14 14 14 14 14 14 14 14 14 14 14 14 13 14 14 14 14
16 16 16 15 15 15 15 15 15 15 15 15 15 14 14 14 14 15 15 14 14 14 14 14 14 14 14 14 14 14 14 14 14 14 14 14 14 13 13 13 14 14 14
16 16 16 15 15 15 15 15 15 15 14 14 14 14 14 14 14 15 14 14 14 14 14 14 14 14 14 14 14 14 14 13 13 13 14 14 13 13 13 13 13 13 13
15 15 15 15 15 14 14 14 14 14 14 14 14 14 14 14 14 14 14 14 14 14 14 14 14 14 14 14 14 14 14 14 13 13 13 13 13 13 13 13 13 13 13
15 15 15 15 15 14 14 14 14 14 14 14 14 14 14 14 14 14 14 14 14 13 13 13 13 13 13 13 13 13 13 13 13 13 13 13 13 13 13 13 13 13 13
15 15 15 15 15 14 14 14 14 14 14 14 14 14 14 14 14 14 14 13 13 13 13 13 13 13 13 13 13 13 13 13 13 13 13 13 13 13 13 12 12 12 12
15 15 15 15 14 14 14 14 14 14 14 14 14 14 14 14 14 14 14 13 13 13 13 13 13 13 13 13 13 12 12 13 13 13 13 13 13 12 12 12 12 12 12
15 15 15 15 14 14 14 14 14 14 14 14 14 14 13 13 14 13 13 13 13 13 13 13 13 13 13 13 13 12 12 12 12 12 12 12 12 12 12 12 12 12 12
15 15 15 14 14 14 14 14 13 13 13 14 13 13 13 13 13 13 13 13 13 13 13 13 12 12 12 12 12 12 12 12 12 12 12 12 12 12 11 11 11 11 12
15 15 14 14 14 14 14 13 13 13 13 13 13 13 13 13 13 13 13 13 12 12 12 12 12 12 12 12 12 12 12 12 11 12 12 11 11 11 11 11 11 11 12
14 14 14 14 14 14 13 13 13 13 13 13 13 13 13 13 13 12 12 12 12 12 12 12 12 12 12 12 12 11 11 11 11 11 11 11 11 11 11 11 11 11 11
14 14 14 14 14 13 13 13 13 13 13 12 12 12 12 12 12 12 12 12 12 12 12 12 12 11 11 11 11 11 11 11 11 11 11 11 11 11 11 11 11 11 11
14 14 14 14 13 13 13 13 13 13 12 12 12 12 12 12 12 12 12 12 12 11 11 11 11 11 11 11 11 11 11 11 11 11 11 11 10 10 11 11 10 10 10
14 13 14 14 13 13 13 13 13 13 12 12 12 12 12 12 12 12 12 11 11 11 11 11 11 11 11 11 11 11 11 11 10 10 10 10 10 10 10 10 10 10 10
13 13 13 13 13 13 13 13 13 13 13 12 12 12 12 11 11 11 11 11 11 11 11 11 11 11 11 11 11 11 11 10 10 10 10 10 10 10 10 10 10 10 10
13 13 13 13 13 13 13 13 13 13 13 12 12 12 12 11 11 11 11 11 11 11 11 11 11 11 11 11 10 10 10 10 10 10 10 10 10 10 10 10 10 10 10
13 13 13 13 13 13 13 13 13 13 12 12 12 12 11 11 11 11 11 11 11 11 11 11 10 10 10 10 10 10 10 10 10 10 10 10 10 9 9 9 10 10 10
13 13 13 13 13 13 13 13 13 12 12 12 12 12 11 11 11 11 11 11 10 10 10 10 10 10 10 10 10 10 10 10 10 10 10 9 9 9 9 9 9 9 9
13 13 13 13 13 12 12 12 12 12 12 12 12 11 11 11 11 11 11 11 10 10 10 10 10 10 10 10 10 10 9 9 9 9 9 9 9 9 9 9 9 9 9
13 13 13 12 12 12 12 12 12 12 12 12 12 11 11 11 11 10 10 10 10 10 10 10 10 10 9 9 9 9 9 9 9 9 9 9 9 9 9 9 9 9 9
13 13 12 12 12 12 12 12 12 12 12 12 11 11 11 11 10 10 10 10 10 10 9 9 9 9 9 9 9 9 9 9 9 9 9 9 9 9 9 9 9 9 9
12 12 12 12 12 12 12 12 12 12 12 11 11 11 11 11 10 10 10 10 10 9 9 9 9 9 9 9 9 9 9 9 9 9 9 9 8 8 8 8 8 8 8
12 12 12 12 12 12 12 12 11 11 11 11 11 11 11 10 10 10 10 10 9 9 9 9 9 9 9 9 9 9 9 9 9 9 8 8 8 8 8 8 8 8 8
Wind_Speed
3 3 3 4 4 4 4 4 4 3 3 3 3 3 3 3 3 3 4 3 4 4 4 4 4 5 5 4 4 4 4 4 4 3 2 2 2 2 1 2 3 3 2
3 3 3 4 4 4 4 4 4 4 4 3 3 3 3 3 3 3 3 3 3 4 4 4 5 4 4 4 4 4 3 3 4 4 3 2 2 3 2 3 2 2 1
4 4 4 3 3 4 4 4 4 3 3 4 4 4 4 3 3 3 3 3 4 4 4 4 5 4 4 3 4 3 3 4 4 4 4 2 3 2 3 3 2 2 2
4 4 4 4 3 3 3 3 4 3 4 4 4 4 4 4 4 4 4 4 4 4 4 4 4 5 5 5 4 4 4 4 4 4 4 3 3 3 3 3 2 2 2
4 4 4 3 3 3 3 3 3 4 4 4 4 4 4 4 3 3 4 4 4 4 4 4 4 3 4 4 4 3 4 4 4 4 4 4 3 3 3 3 2 2 1
4 4 3 2 2 2 2 2 2 3 3 4 4 4 4 4 0 2 5 4 4 4 4 4 4 4 3 3 3 4 5 6 5 5 5 4 4 4 3 4 3 3 3
4 3 3 2 2 3 3 2 3 3 3 3 4 4 4 3 1 3 4 5 5 4 4 4 4 2 3 3 4 6 6 6 7 7 6 6 5 4 4 5 4 4 3
3 3 3 3 3 4 3 2 3 3 3 3 3 3 4 3 2 3 5 6 5 5 4 4 4 3 2 3 4 4 5 5 6 6 5 5 4 3 4 5 4 4 4
4 3 3 4 4 4 3 3 3 3 3 3 3 3 3 3 2 3 5 5 4 5 5 4 4 4 2 2 4 4 4 4 4 4 4 3 2 3 4 4 4 4 4
3 3 3 3 4 4 4 3 2 3 3 3 3 3 3 3 2 3 5 4 4 5 4 4 4 3 2 3 4 5 5 4 4 4 4 4 5 4 5 5 5 5 4
2 2 2 3 4 4 3 2 2 3 3 3 3 3 3 3 2 2 4 4 4 4 4 4 3 4 3 3 5 5 4 4 5 4 4 4 3 3 3 4 4 5 5
2 2 2 3 3 2 2 2 2 3 3 3 3 3 3 2 2 2 4 5 5 4 3 3 1 4 3 4 4 4 3 4 4 4 3 3 3 3 2 3 3 3 4
2 2 2 3 2 2 2 2 3 3 3 3 3 3 3 2 2 3 4 4 5 4 3 0 0 3 3 4 5 5 5 4 4 4 3 3 2 2 2 2 3 3 4
3 3 3 3 2 2 2 2 2 2 3 3 3 3 3 2 2 1 2 3 3 3 3 2 4 5 4 2 2 4 4 3 3 3 3 3 2 2 3 3 3 3 3
4 3 3 3 2 2 2 2 3 2 2 3 3 3 3 3 2 2 3 3 3 2 3 2 2 1 2 2 2 2 2 2 2 3 3 2 2 2 3 3 3 3 3
4 4 4 3 3 2 2 2 1 2 2 3 3 4 3 1 2 1 3 3 3 4 3 2 2 2 2 2 2 2 2 2 2 3 3 3 2 2 3 3 3 4 3
5 4 4 3 3 3 2 3 2 2 4 4 4 3 2 2 1 2 3 4 5 5 3 3 3 3 3 2 2 3 2 2 2 3 3 3 2 3 3 3 3 3 3
6 4 5 4 4 3 3 3 3 2 2 1 3 4 4 3 2 3 3 3 3 4 3 3 2 3 3 3 3 3 2 2 3 3 3 3 3 3 3 3 3 3 3
5 4 4 4 4 4 3 3 3 3 2 1 1 3 5 5 6 5 5 3 2 2 2 2 2 2 2 2 2 2 2 2 2 3 3 3 3 3 3 4 4 3 4
5 5 5 5 4 4 3 3 3 2 2 2 1 1 1 2 1 2 2 2 2 2 2 2 2 2 2 2 3 3 3 3 3 3 3 3 3 3 3 4 4 3 4
4 4 6 6 4 3 3 3 3 3 3 2 2 1 2 2 1 2 2 2 2 2 2 2 2 2 2 2 3 3 3 3 3 3 3 3 3 3 3 3 4 4 4
4 4 4 4 3 3 3 3 3 3 3 3 2 2 5 3 2 2 2 2 2 1 2 2 2 2 2 2 2 2 2 2 2 2 3 3 3 4 4 4 4 4 3
5 4 4 4 4 3 4 4 3 3 3 3 2 1 2 2 2 2 2 2 2 2 2 2 2 2 2 2 2 2 2 2 2 3 3 3 4 4 4 4 4 4 4
4 4 5 4 4 4 3 3 3 3 3 2 2 2 2 2 3 3 2 2 2 2 2 2 2 2 2 2 2 2 1 2 3 3 3 3 4 3 4 4 4 5 5
4 4 4 4 4 3 3 3 3 3 3 3 3 3 3 3 3 3 3 2 2 2 2 3 2 2 2 3 2 2 3 3 3 4 3 3 3 3 4 4 4 4 5
5 4 4 4 4 3 3 3 3 3 3 3 3 3 3 3 3 3 2 2 2 2 2 2 2 2 2 3 1 1 2 2 3 5 5 4 4 4 4 4 5 5 5
Wind_Direction
203 218 222 216 220 223 229 238 241 247 251 253 254 257 261 265 265 265 268 262 261 265 268 260 258 269 261 251 247 247 247 251 252 259 263 261 247 264 252 255 246 231 189
200 202 215 221 221 225 227 232 233 237 244 245 247 249 257 262 261 259 261 264 265 265 270 274 271 262 260 260 254 247 244 241 238 248 249 245 243 249 250 256 255 253 243
201 203 211 220 224 233 237 236 230 232 241 242 240 247 256 261 255 256 260 264 265 262 262 263 268 267 264 262 256 245 237 234 234 237 240 240 247 256 248 243 247 259 260
201 204 211 223 228 235 239 239 236 235 239 244 243 245 249 252 251 255 257 260 260 263 261 258 262 262 255 251 244 239 235 235 229 235 234 233 235 247 250 248 246 243 277
202 204 213 225 230 235 234 235 234 232 234 237 244 247 249 247 251 263 264 256 252 258 259 254 251 255 275 259 255 239 231 231 229 231 232 234 233 243 244 247 253 259 257
207 205 202 217 234 240 242 241 242 244 243 239 240 248 253 255 332 283 270 265 253 253 255 253 246 231 230 236 255 259 252 239 239 240 241 242 237 245 249 245 243 249 257
201 199 192 200 235 242 242 244 249 248 245 247 249 251 253 255 208 252 265 261 251 251 252 250 253 235 211 234 226 229 242 250 250 245 243 246 240 239 241 240 239 245 254
190 193 203 205 235 247 237 236 248 251 256 254 255 256 253 244 201 238 262 247 250 248 244 242 242 244 233 232 231 233 234 232 233 234 238 246 250 247 243 247 241 230 234
195 199 204 209 225 241 237 231 245 250 254 255 248 249 254 248 218 240 259 248 243 246 240 235 232 233 203 225 226 234 240 236 217 219 236 245 264 258 257 247 236 231 238
213 212 209 206 219 231 235 233 239 245 250 259 258 258 254 255 217 228 251 250 246 241 231 226 205 217 187 198 222 231 236 238 234 207 205 212 220 223 232 242 246 242 240
229 210 196 202 209 215 222 230 239 250 258 258 258 255 251 253 215 217 247 253 256 244 233 225 207 162 198 220 236 241 248 247 233 220 206 205 209 217 227 234 249 249 248
213 203 200 215 224 205 206 225 239 249 247 247 250 255 242 236 238 229 235 249 274 254 244 239 189 151 205 227 232 249 242 240 237 225 221 214 215 222 234 242 239 242 250
221 217 214 219 217 214 218 228 228 229 249 256 256 264 265 256 215 195 214 227 242 249 253 314 303 182 216 218 216 222 214 224 229 231 233 240 244 230 230 236 231 226 227
221 228 219 216 210 210 240 243 250 251 258 261 265 272 279 280 282 257 248 239 220 228 252 212 191 195 211 224 206 209 226 229 232 236 241 242 245 230 227 232 236 232 227
226 231 234 228 220 224 233 254 248 258 264 260 270 278 280 276 304 309 255 262 264 258 250 243 241 228 226 229 221 218 226 219 227 241 241 244 246 237 238 231 237 236 232
227 232 238 235 229 233 230 239 191 239 193 215 252 276 287 301 329 280 254 256 245 239 236 233 229 229 237 237 230 222 221 224 231 239 243 245 246 250 247 235 230 235 239
231 232 243 240 235 237 238 243 245 213 194 194 209 230 244 281 284 260 248 238 220 208 217 236 238 233 234 241 246 248 243 238 234 231 239 249 254 253 248 244 240 242 246
234 224 233 238 242 243 243 244 246 245 236 229 188 176 179 192 207 218 221 219 200 195 222 235 239 236 234 233 238 249 248 238 233 235 238 248 249 250 252 253 246 244 248
235 234 235 244 243 241 243 242 243 245 244 224 197 163 172 187 193 198 206 232 235 227 224 231 247 247 245 241 236 233 237 243 241 239 240 244 249 252 250 251 249 236 246
229 218 239 248 242 235 236 242 240 240 238 230 222 205 168 208 206 186 209 243 254 250 250 247 251 262 261 254 243 233 232 230 228 234 239 243 252 256 255 256 255 245 243
241 213 209 236 243 240 240 242 242 241 240 239 228 150 193 231 228 227 232 240 251 250 246 255 250 240 238 240 241 233 228 228 231 234 237 238 245 254 259 255 250 250 247
246 234 232 231 234 239 248 249 248 243 237 237 235 169 172 229 252 247 248 250 257 262 253 248 253 250 253 257 254 247 243 249 248 237 232 232 237 246 248 244 246 249 247
238 235 233 231 231 218 230 240 242 244 244 237 233 238 211 245 260 257 251 258 261 256 254 253 253 243 250 270 276 262 260 274 279 274 263 254 252 250 253 251 249 253 253
233 228 229 233 234 238 241 245 245 244 239 235 228 231 228 228 237 246 249 249 248 245 245 245 243 236 256 274 277 272 294 319 296 270 263 258 254 254 254 252 252 249 249
229 229 227 225 230 238 246 251 251 252 241 231 227 224 227 227 231 236 238 234 233 235 237 242 238 230 241 261 273 303 28 2 311 290 257 247 247 252 253 252 251 256 251
224 224 227 228 232 240 247 250 247 245 245 241 232 226 228 227 231 231 226 226 226 223 234 246 237 231 240 249 267 12 27 326 287 280 269 251 245 245 248 246 248 250 253
Height
1510 1510 1511 1511 1512 1512 1512 1513 1513 1513 1513 1513 1513 1513 1513 1512 1512 1511 1511 1511 1510 1510 1510 1509 1509 1509 1509 1510 1510 1510 1510 1511 1510 1511 1512 1512 1511 1512 1512 1512 1512 1511 1511
1508 1508 1509 1509 1510 1510 1510 1510 1510 1510 1511 1511 1510 1510 1510 1510 1509 1509 1508 1508 1508 1507 1507 1507 1506 1506 1506 1506 1506 1506 1507 1507 1508 1508 1509 1509 1509 1509 1509 1509 1509 1509 1509
1506 1506 1506 1507 1507 1507 1507 1507 1507 1507 1507 1508 1508 1507 1507 1507 1506 1506 1506 1505 1505 1505 1504 1504 1503 1503 1503 1503 1503 1503 1504 1504 1505 1505 1506 1506 1507 1507 1507 1507 1507 1506 1507
1503 1504 1504 1504 1504 1505 1505 1505 1505 1504 1504 1505 1505 1504 1504 1504 1504 1503 1503 1502 1502 1502 1502 1501 1501 1500 1500 1500 1500 1500 1501 1501 1502 1502 1503 1504 1504 1504 1505 1505 1505 1505 1504
1501 1501 1502 1502 1502 1502 1503 1502 1502 1502 1502 1502 1502 1501 1501 1502 1501 1501 1501 1500 1499 1499 1499 1498 1498 1497 1497 1497 1498 1498 1498 1499 1500 1500 1501 1501 1502 1502 1502 1502 1502 1502 1502
1498 1499 1499 1500 1499 1500 1500 1500 1500 1499 1499 1499 1499 1499 1498 1499 1498 1498 1497 1497 1497 1496 1496 1495 1495 1494 1494 1494 1494 1494 1495 1496 1497 1497 1498 1498 1498 1499 1499 1500 1500 1500 1499
1496 1496 1497 1497 1498 1498 1498 1497 1497 1497 1497 1496 1496 1496 1495 1495 1495 1495 1494 1494 1493 1493 1493 1492 1492 1492 1491 1491 1491 1491 1492 1492 1493 1494 1495 1495 1495 1495 1496 1496 1496 1496 1496
1494 1494 1494 1494 1495 1495 1494 1494 1495 1495 1494 1494 1493 1493 1492 1492 1492 1491 1491 1490 1490 1490 1489 1489 1489 1488 1488 1488 1488 1489 1489 1489 1490 1491 1491 1492 1492 1492 1493 1493 1493 1494 1494
1492 1492 1492 1491 1492 1492 1492 1491 1492 1492 1492 1491 1491 1490 1489 1489 1489 1488 1487 1487 1486 1486 1486 1486 1485 1485 1485 1485 1486 1486 1486 1487 1487 1488 1488 1489 1489 1489 1490 1491 1491 1492 1492
1490 1489 1489 1489 1489 1489 1489 1489 1489 1489 1489 1489 1488 1487 1487 1486 1485 1485 1484 1483 1483 1482 1482 1482 1482 1482 1482 1482 1483 1483 1483 1484 1485 1485 1485 1486 1486 1486 1487 1487 1488 1489 1489
1487 1487 1487 1487 1487 1487 1487 1487 1487 1486 1486 1486 1485 1484 1483 1483 1482 1481 1480 1479 1479 1479 1479 1479 1479 1479 1479 1479 1480 1480 1481 1481 1482 1482 1482 1483 1483 1484 1484 1484 1484 1485 1486
1485 1485 1485 1485 1485 1485 1485 1484 1484 1484 1483 1483 1482 1482 1481 1479 1479 1478 1477 1476 1476 1476 1476 1477 1477 1476 1477 1477 1477 1477 1478 1478 1479 1480 1480 1480 1481 1481 1480 1480 1480 1480 1480
1483 1483 1483 1483 1483 1482 1482 1482 1481 1481 1481 1480 1480 1479 1478 1477 1476 1475 1474 1473 1473 1473 1474 1474 1474 1474 1474 1475 1475 1475 1476 1476 1476 1477 1477 1478 1478 1478 1477 1477 1477 1476 1476
1481 1481 1481 1481 1480 1480 1479 1479 1479 1478 1478 1477 1477 1476 1476 1475 1474 1473 1471 1471 1471 1471 1472 1472 1472 1472 1472 1473 1473 1473 1473 1474 1474 1474 1475 1475 1475 1475 1475 1475 1475 1475 1475
1479 1479 1479 1479 1478 1477 1477 1477 1476 1476 1475 1474 1474 1474 1473 1472 1472 1470 1469 1469 1468 1468 1469 1470 1470 1471 1471 1471 1471 1471 1471 1472 1472 1472 1472 1473 1473 1473 1473 1473 1473 1473 1473
1477 1477 1477 1477 1476 1475 1474 1474 1473 1473 1471 1471 1470 1470 1470 1470 1468 1468 1467 1467 1467 1467 1467 1468 1468 1468 1469 1469 1469 1469 1470 1470 1469 1470 1470 1470 1471 1471 1471 1471 1471 1471 1471
1474 1474 1474 1474 1473 1472 1472 1472 1471 1470 1469 1468 1467 1467 1467 1466 1466 1465 1465 1465 1465 1465 1465 1466 1466 1466 1466 1467 1467 1468 1468 1467 1467 1467 1468 1468 1469 1469 1469 1469 1469 1469 1469
1471 1472 1471 1471 1471 1470 1470 1470 1469 1467 1467 1466 1465 1464 1464 1464 1463 1463 1462 1463 1463 1463 1463 1464 1464 1465 1465 1465 1465 1465 1466 1466 1465 1465 1466 1466 1466 1466 1466 1467 1467 1467 1467
1468 1469 1468 1468 1468 1468 1468 1467 1467 1466 1465 1464 1464 1463 1462 1462 1461 1461 1461 1461 1461 1461 1461 1462 1462 1463 1463 1463 1463 1463 1463 1463 1463 1463 1463 1463 1463 1463 1464 1464 1464 1464 1465
1465 1465 1465 1466 1466 1466 1465 1465 1464 1464 1463 1462 1462 1461 1461 1460 1460 1460 1459 1459 1459 1459 1460 1460 1460 1460 1461 1461 1461 1461 1461 1461 1461 1461 1461 1461 1461 1461 1461 1461 1462 1462 1462
1462 1462 1462 1463 1463 1463 1463 1462 1462 1461 1461 1461 1460 1459 1458 1458 1458 1458 1458 1458 1458 1458 1458 1458 1458 1459 1459 1459 1459 1459 1459 1459 1459 1459 1459 1459 1459 1459 1459 1459 1460 1460 1460
1459 1459 1459 1460 1460 1460 1460 1460 1460 1460 1459 1458 1458 1457 1457 1457 1457 1457 1456 1456 1456 1456 1456 1457 1457 1457 1457 1457 1456 1456 1457 1457 1457 1457 1457 1457 1457 1457 1457 1457 1457 1457 1458
1455 1456 1457 1457 1457 1457 1457 1457 1457 1457 1457 1456 1456 1455 1455 1455 1455 1455 1454 1454 1454 1454 1454 1454 1455 1455 1455 1455 1455 1455 1455 1455 1455 1454 1454 1454 1454 1455 1455 1455 1455 1455 1455
1453 1453 1454 1454 1454 1455 1455 1455 1454 1454 1454 1454 1453 1453 1453 1453 1453 1453 1453 1453 1452 1452 1452 1452 1452 1452 1452 1452 1453 1453 1453 1452 1452 1452 1452 1451 1452 1452 1452 1452 1452 1452 1453
1450 1450 1451 1451 1452 1452 1452 1452 1452 1451 1451 1451 1451 1450 1451 1451 1451 1451 1450 1450 1450 1450 1450 1450 1450 1450 1450 1450 1450 1450 1449 1449 1449 1449 1449 1449 1449 1449 1449 1449 1449 1449 1450
1447 1448 1448 1449 1449 1449 1449 1449 1449 1448 1448 1448 1448 1448 1448 1448 1448 1448 1448 1448 1448 1448 1448 1448 1448 1448 1448 1448 1447 1447 1446 1446 1446 1446 1446 1446 1446 1446 1446 1446 1446 1446 1446